Los Angeles Downtown, CA

11:23 PM PDT on April 26, 2017 (GMT -0700)
Los Angeles Downtown

Weather History for KCQT - July, 2012

Change the Weather History Date:

Monday, July 2, 2012

  Actual Average Record
Temperature  
Mean Temperature 70 °F 72 °F  
Max Temperature 78 °F 82 °F 102 °F (1985)
Min Temperature 62 °F 63 °F 51 °F (1887)
Degree Days  
Heating Degree Days 0 0  
Month to date heating degree days 0 0  
Since 1 June heating degree days 0 8  
Since 1 July heating degree days 0 0  
Cooling Degree Days 5 7  
Month to date cooling degree days 10 14  
Year to date cooling degree days 202 302  
Since 1 June cooling degree days 108 148  
Growing Degree Days 20 (Base 50)    
Moisture  
Dew Point 58 °F    
Average Humidity 70    
Maximum Humidity 84    
Minimum Humidity 56    
Precipitation  
Precipitation 0.00 in 0.00 in 0.00 in (2017)
Month to date precipitation 0.00 0.00  
Year to date precipitation 4.93 10.61  
Since 1 July precipitation 0.00  
Sea Level Pressure  
Sea Level Pressure 29.86 in    
Wind  
Wind Speed 2 mph (North)    
Max Wind Speed 9 mph    
Max Gust Speed 14 mph    
Visibility 10 miles    
Events      
T = Trace of Precipitation, MM = Missing Value Source: NWS Daily Summary

Daily Weather History Graph

Daily Weather History Graph

Search for Another Location

Airport or City:

Trip Planner

Search our weather history database for the weather conditions in past years. The results will help you decide how hot, cold, wet, or windy it might be!

Date:

Astronomy

Jul. 02, 2012 Rise Set
Actual Time 5:45 AM PDT 8:08 PM PDT
Civil Twilight 5:16 AM PDT 8:37 PM PDT
Nautical Twilight 4:41 AM PDT 9:12 PM PDT
Astronomical Twilight 4:02 AM PDT 9:51 PM PDT
Moon 7:17 PM PDT (7/2) 4:37 AM PDT (7/2)
Length of Visible Light 15h 20m
Length of Day
14h 22m
Waxing Gibbous, 99% of the Moon is Illuminated
Jul 2
Waxing Gibbous
Jul 3
Full
Jul 10
Last Quarter
Jul 18
New
Jul 26
First Quarter

Hourly Weather History & Observations

Time (PDT) Temp. Dew Point Humidity Pressure Visibility Wind Dir Wind Speed Gust Speed Precip Events Conditions
12:47 AM 64.0 °F 57.0 °F 78% 29.84 in 10.0 mi Calm Calm - N/A   Clear
1:47 AM 64.0 °F 55.9 °F 75% 29.83 in 10.0 mi Calm Calm - N/A   Clear
2:47 AM 63.0 °F 55.9 °F 78% 29.83 in 10.0 mi Calm Calm - N/A   Clear
3:47 AM 63.0 °F 57.0 °F 81% 29.83 in 9.0 mi Calm Calm - N/A   Clear
4:44 AM 62.6 °F 57.2 °F 82% 29.84 in 10.0 mi Calm Calm - N/A   Mostly Cloudy
4:47 AM 63.0 °F 57.0 °F 81% 29.84 in 10.0 mi Calm Calm - N/A   Mostly Cloudy
5:04 AM 62.6 °F 57.2 °F 82% 29.84 in 10.0 mi Calm Calm - N/A   Overcast
5:47 AM 63.0 °F 57.9 °F 84% 29.85 in 10.0 mi Calm Calm - N/A   Overcast
6:47 AM 64.0 °F 57.9 °F 80% 29.86 in 10.0 mi Calm Calm - N/A   Overcast
7:47 AM 64.9 °F 57.9 °F 78% 29.87 in 8.0 mi Calm Calm - N/A   Overcast
8:47 AM 66.9 °F 59.0 °F 76% 29.88 in 8.0 mi Calm Calm - N/A   Overcast
8:57 AM 66.2 °F 57.2 °F 73% 29.88 in 8.0 mi Calm Calm - N/A   Overcast
9:47 AM 69.1 °F 59.0 °F 70% 29.87 in 9.0 mi Variable 3.5 mph - N/A   Mostly Cloudy
9:57 AM 69.8 °F 59.0 °F 68% 29.88 in 10.0 mi Calm Calm - N/A   Scattered Clouds
10:21 AM 71.6 °F 59.0 °F 64% 29.88 in 10.0 mi Calm Calm - N/A   Mostly Cloudy
10:30 AM 71.6 °F 59.0 °F 64% 29.88 in 10.0 mi Calm Calm - N/A   Scattered Clouds
10:47 AM 72.0 °F 60.1 °F 66% 29.87 in 10.0 mi Variable 3.5 mph - N/A   Scattered Clouds
11:47 AM 75.0 °F 60.1 °F 60% 29.86 in 10.0 mi Calm Calm - N/A   Clear
12:47 PM 75.9 °F 61.0 °F 60% 29.86 in 10.0 mi Variable 4.6 mph - N/A   Clear
1:47 PM 77.0 °F 60.1 °F 56% 29.85 in 10.0 mi Variable 4.6 mph - N/A   Clear
2:47 PM 75.9 °F 60.1 °F 58% 29.85 in 10.0 mi Variable 5.8 mph - N/A   Clear
3:47 PM 73.9 °F 60.1 °F 62% 29.84 in 10.0 mi Variable 5.8 mph - N/A   Clear
4:47 PM 73.0 °F 60.1 °F 64% 29.83 in 10.0 mi Variable 3.5 mph - N/A   Clear
5:47 PM 72.0 °F 60.1 °F 66% 29.82 in 10.0 mi Variable 3.5 mph - N/A   Clear
6:47 PM 69.1 °F 59.0 °F 70% 29.83 in 10.0 mi Calm Calm - N/A   Clear
7:47 PM 66.0 °F 57.9 °F 75% 29.85 in 10.0 mi Calm Calm - N/A   Clear
8:47 PM 64.0 °F 57.0 °F 78% 29.86 in 10.0 mi Variable 3.5 mph - N/A   Clear
9:47 PM 63.0 °F 55.9 °F 78% 29.87 in 10.0 mi Calm Calm - N/A   Clear
10:47 PM 63.0 °F 57.0 °F 81% 29.88 in 10.0 mi Calm Calm - N/A   Clear
11:18 PM 62.6 °F 57.2 °F 82% 29.89 in 10.0 mi Calm Calm - N/A   Mostly Cloudy
11:47 PM 63.0 °F 57.0 °F 81% 29.88 in 10.0 mi Calm Calm - N/A   Overcast